Starlink 4426

operational
NORAD ID: 53484 Int'l Des: 2022-099 Owner: SPXS Country: US Constellation: starlink
LEOCIRCULARRETROGRADESSO

Über Starlink 4426

Beschreibung wird geladen...

Live-Position

3D-Globus wird geladen...

Nächste Überflüge

Höhenverlauf

Altitude vs Time

uPlot chart will show altitude changes over time

Zweizeiliger Elementsatz

1 53484U 22099V 25259.27249755 -.00000429 00000-0 -28880-4 0 9997
2 53484 97.6064 19.4601 0002529 93.7147 266.4367 15.01249597169810
Epoch: 16. Sept. 2025 • Age: 8 hours

Aktueller Status

Höhe 574.9 km
Geschwindigkeit 7.57 km/s
Subsatellitenpunkt -29.14°S, 172.12°E
Startdatum 12. Aug. 2022
Alter 3 years
Typ internet

Technische Details

Klassifizierung Payload
Masse 300.00 kg
Trockenmasse 275.00 kg
Gesamtmasse 300.00 kg
Länge 0.20 m
Durchmesser 2.80 m
Spannweite 9.00 m
Form Box + pan
Hersteller SPXS
Bus-Typ Starlink
Phasenstatus In Orbit
Besitzer/Staat SPXS/US

Große Konstellationen

Loading constellations...